Weather observations for the past three days for
Marshall County Airport
Imperial (Metric)
Date Time (cdt) Wind (mph) Vis. (mi.) Weather Sky Cond. Temperature (ºF) Relative Humidity Wind Chill (°F) Heat Index (°F) Pressure Precipitation (in)
Air Dwpt 6 hour altimeter (in) sea level (mb) 1 hr 3 hr 6 hr
Max. Min.
13 13:35 Calm 10.00 Partly Cloudy SCT035 SCT040 87.3 72.7 62% 94 30.09 0.0
13 13:15 Calm 10.00 Partly Cloudy SCT035 87.3 73.2 63% 95 30.09 0.0
13 12:55 Calm 10.00 Fair CLR 86.9 71.8 87.3 71.4 61% 93 30.09 0.0
13 12:40 Calm 10.00 Fair CLR 87.3 73 63% 95 30.1 0.0
13 12:15 Calm 10.00 Fair CLR 86.5 72.3 63% 93 30.11 0.0
13 11:55 Calm 10.00 Fair CLR 85.5 71.8 64% 91 30.12 0.0
13 11:35 Calm 10.00 Fair CLR 85.1 71.8 64% 91 30.12 0.0
13 11:15 Calm 10.00 Partly Cloudy SCT070 84.2 70.9 64% 89 30.13 0.0
13 10:55 Calm 10.00 Fair CLR 83.1 69.6 64% 87 30.13 0.0
13 10:35 Calm 10.00 Fair CLR 82.4 69.4 65% 86 30.14 0.0
13 10:15 Calm 10.00 Fair CLR 81.3 68.9 66% 84 30.13 0.0
13 09:55 Calm 10.00 Fair CLR 80.6 68.7 67% 84 30.13 0.0
13 09:35 Calm 10.00 Fair CLR 79.7 68.9 70% 82 30.13 0.0
13 09:15 Calm 10.00 Fair CLR 79.3 69.1 71% 82 30.13 0.0
13 08:55 Calm 10.00 Partly Cloudy SCT060 78.8 69.8 74% 81 30.13 0.0
13 08:35 Calm 10.00 Mostly Cloudy BKN060 77 69.3 77% 79 30.14 0.0
13 08:15 Calm 10.00 Partly Cloudy SCT060 76.1 68.9 78% 77 30.14 0.0
13 07:55 Calm 10.00 Partly Cloudy SCT060 74.7 68.5 81% 30.14 0.0
13 07:40 Calm 10.00 Fair CLR 73.6 68.2 83% 30.14 0.0
13 07:15 Calm 10.00 Fair CLR 72.1 67.5 85% 30.14 0.0
13 07:00 Calm 10.00 Fair CLR 71.6 67.1 86% 30.13 0.0
13 06:35 Calm 10.00 Fair CLR 70.3 66.4 87% 30.13 0.0
13 06:17 Calm 10.00 Fair CLR 69.8 66.2 88% 30.13 0.0
13 05:55 Calm 10.00 Fair CLR 70 65.7 86% 30.13 0.0
13 05:40 Calm 10.00 Fair CLR 69.1 65.8 89% 30.13 0.0
13 05:15 Calm 10.00 Partly Cloudy SCT033 SCT039 68.9 66.2 91% 30.13 0.0
13 04:35 Calm 10.00 Fair CLR 67.8 65.3 92% 30.13 0.0
13 04:15 Calm 10.00 Fair CLR 68.9 66.4 92% 30.12 0.0
13 04:00 Calm 7.00 Fair CLR 67.6 65.5 93% 30.12 0.0
13 03:35 Calm 7.00 Fair CLR 67.6 65.8 94% 30.12 0.0
13 03:15 Calm 10.00 Fair CLR 67.5 65.5 93% 30.11 0.0
13 02:55 Calm 7.00 Fair CLR 67.8 65.7 93% 30.11 0.0
13 02:35 Calm 10.00 Fair CLR 68.2 65.7 92% 30.11 0.0
13 02:15 Calm 10.00 Fair CLR 68.9 66.6 92% 30.11 0.0
13 01:55 Calm 10.00 Fair CLR 68.7 66.2 92% 30.11 0.0
13 01:35 Calm 10.00 Fair CLR 69.8 66.9 91% 30.11 0.0
13 01:15 Calm 10.00 Fair CLR 69.4 66.9 92% 30.11 0.0
13 00:55 Calm 10.00 Fair CLR 69.1 66.6 92% 30.12 0.0
13 00:37 Calm 10.00 Fair CLR 69.8 66.2 88% 30.12 0.0
13 00:15 Calm 10.00 Fair CLR 70 67.1 91% 30.12 0.0
12 23:55 Calm 10.00 Fair CLR 70.2 67.5 91% 30.12 0.0
12 23:40 Calm 10.00 Fair CLR 70 67.5 92% 30.12 0.0
12 23:20 Calm 10.00 Fair CLR 70.7 67.6 90% 30.12 0.0
12 22:55 Calm 10.00 Fair CLR 71.6 68.2 89% 30.11 0.0
12 22:35 Calm 10.00 Fair CLR 72.5 68 86% 30.12 0.0
12 22:15 Calm 10.00 Fair CLR 73.4 68.4 84% 30.12 0.0
12 21:55 Calm 10.00 Fair CLR 72.9 68.2 85% 30.11 0.0
12 21:37 Calm 10.00 Fair CLR 73.4 69.8 89% 30.11 0.0
12 21:15 Calm 10.00 Fair CLR 73.8 68.9 85% 30.1 0.0
12 20:55 Calm 10.00 Fair CLR 74.8 68.9 82% 30.1 0.0
12 20:40 Calm 10.00 Fair CLR 76.5 69.1 78% 78 30.1 0.0
12 20:20 Calm 10.00 Fair CLR 77.9 69.4 75% 80 30.1 0.0
12 19:55 Calm 10.00 Fair CLR 80.2 69.1 69% 83 30.1 0.0
12 19:35 Calm 10.00 Fair CLR 81.5 68.7 65% 85 30.09 0.0
12 19:15 Calm 10.00 Fair CLR 82.8 67.3 60% 85 30.09 0.0
12 18:55 Calm 10.00 Fair CLR 82.9 67.6 84.6 80.2 60% 86 30.08 0.0
12 18:35 Calm 10.00 Fair CLR 82.9 66.4 57% 85 30.08 0.0
12 18:15 Calm 10.00 Fair CLR 83.5 65.8 55% 86 30.08 0.0
12 18:00 Calm 10.00 Fair CLR 84 66.7 56% 87 30.08 0.0
12 17:35 Calm 10.00 Fair CLR 83.3 66.6 57% 86 30.08 0.0
12 17:15 Calm 10.00 Partly Cloudy SCT039 83.8 66.2 55% 86 30.07 0.0
12 16:55 Calm 10.00 Partly Cloudy SCT039 SCT050 83.5 67.1 58% 86 30.08 0.0
12 16:35 Calm 10.00 Partly Cloudy SCT037 SCT044 SCT050 82.9 67.3 59% 86 30.08 0.0
12 16:20 Calm 10.00 Partly Cloudy SCT039 84.4 66.9 56% 87 30.08 0.0
12 16:00 Calm 10.00 Partly Cloudy SCT037 84 66 55% 86 30.08 0.0
12 15:35 Calm 10.00 Fair CLR 83.8 66.4 56% 86 30.09 0.0
12 15:15 Calm 10.00 Partly Cloudy SCT037 83.5 66.7 57% 86 30.1 0.0
12 14:55 Calm 10.00 Mostly Cloudy BKN037 83.3 67.1 58% 86 30.09 0.0
12 14:35 Calm 10.00 Mostly Cloudy BKN035 83.3 66.9 58% 86 30.1 0.0
12 14:15 Calm 10.00 Partly Cloudy SCT039 82 65.8 58% 84 30.09 0.0
12 13:55 Calm 10.00 Partly Cloudy SCT039 81.5 66.4 60% 84 30.1 0.0
12 13:35 Calm 10.00 Partly Cloudy SCT031 81.1 66.7 62% 84 30.11 0.0
12 13:15 Calm 10.00 Mostly Cloudy BKN031 81.5 66.7 61% 84 30.12 0.0
12 12:55 Calm 10.00 Partly Cloudy SCT031 81.1 66.4 81.7 65.1 61% 83 30.12 0.0
12 12:35 Calm 10.00 Partly Cloudy SCT030 79.9 66.6 64% 82 30.12 0.0
12 12:15 Calm 10.00 Partly Cloudy SCT030 80.6 66.4 62% 83 30.13 0.0
12 11:55 Calm 10.00 Fair CLR 79 64.8 62% 81 30.13 0.0
12 11:35 Calm 10.00 Fair CLR 79.5 64 59% 81 30.13 0.0
12 11:15 Calm 10.00 Fair CLR 78.1 66 67% 80 30.13 0.0
12 10:55 Calm 10.00 Fair CLR 77.5 67.5 71% 79 30.13 0.0
12 10:35 Calm 10.00 Fair CLR 76.3 67.6 75% 78 30.13 0.0
12 10:15 Calm 10.00 Partly Cloudy SCT014 75.7 67.3 75% 77 30.13 0.0
12 09:55 Calm 10.00 Fair CLR 74.7 67.1 77% 30.13 0.0
12 09:35 Calm 10.00 Fair CLR 73.2 66.6 80% 30.13 0.0
12 09:15 Calm 10.00 Fair CLR 72.3 66 81% 30.13 0.0
12 08:55 Calm 10.00 Fair CLR 70.9 65.1 82% 30.13 0.0
12 08:35 Calm 10.00 Fair CLR 70.2 64.6 83% 30.13 0.0
12 08:15 Calm 10.00 Fair CLR 69.1 64 84% 30.13 0.0
12 07:55 Calm 10.00 Fair CLR 68 63.9 87% 30.12 0.0
12 07:35 Calm 7.00 Fair CLR 66.7 63.1 88% 30.12 0.0
12 07:15 Calm 7.00 Fair CLR 65.7 62.6 90% 30.12 0.0
12 06:55 Calm 7.00 Fair CLR 64.9 62.4 92% 30.11 0.0
12 06:35 Calm 7.00 Fair CLR 64.4 62.2 93% 30.11 0.0
12 06:15 Calm 5.00 Fog/Mist CLR 63.5 61.5 93% 30.1 0.0
12 05:55 Calm 5.00 Fog/Mist CLR 63.5 61.7 94% 30.09 0.0
12 05:20 Calm 5.00 Fog/Mist CLR 63.1 61.3 94% 30.08 0.0
12 04:55 Calm 7.00 Fair CLR 64 62.1 93% 30.07 0.0
12 04:35 Calm 10.00 Fair CLR 64.4 62.4 93% 30.07 0.0
12 04:15 Calm 10.00 Fair CLR 64.4 62.2 93% 30.07 0.0
12 03:55 Calm 10.00 Fair CLR 64.4 62.1 92% 30.06 0.0
12 03:35 Calm 10.00 Fair CLR 64.8 62.6 93% 30.07 0.0
12 03:15 Calm 10.00 Fair CLR 65.3 62.6 91% 30.07 0.0
12 02:55 Calm 10.00 Fair CLR 65.1 62.4 91% 30.07 0.0
12 02:40 Calm 10.00 Fair CLR 65.7 62.6 90% 30.07 0.0
12 02:19 Calm 10.00 Fair CLR 66.2 62.6 88% 30.07 0.0
12 01:55 Calm 10.00 Fair CLR 66.7 63.5 89% 30.07 0.0
12 01:35 Calm 10.00 Fair CLR 67.1 63.7 89% 30.07 0.0
12 01:15 Calm 10.00 Fair CLR 67.1 64 90% 30.07 0.0
12 00:55 Calm 10.00 Fair CLR 66.7 64.4 78.1 66.7 92% 30.08 0.0
12 00:35 Calm 10.00 Fair CLR 67.6 64.6 90% 30.08 0.0
12 00:15 Calm 10.00 Fair CLR 68 65.7 92% 30.08 0.0
11 23:55 Calm 10.00 Fair CLR 68 66.2 94% 30.08 0.0
11 23:35 Calm 10.00 Fair CLR 68 65.7 92% 30.08 0.0
11 23:15 Calm 10.00 Fair CLR 68 65.8 93% 30.08 0.0
11 23:00 Calm 10.00 Fair CLR 68.4 66.2 93% 30.07 0.0
11 22:35 Calm 10.00 Fair CLR 69.3 66.4 91% 30.07 0.0
11 22:15 Calm 10.00 Fair CLR 69.8 66.9 91% 30.07 0.0
11 21:55 Calm 10.00 Fair CLR 70.2 67.3 91% 30.07 0.0
11 21:35 Calm 10.00 Fair CLR 70.3 67.5 91% 30.06 0.0
11 21:15 Calm 10.00 Fair CLR 71.1 67.6 89% 30.06 0.0
11 20:55 Calm 10.00 Fair CLR 71.6 68 88% 30.05 0.0
11 20:35 Calm 10.00 Fair CLR 73.2 68.9 86% 30.05 0.0
11 20:15 Calm 10.00 Fair CLR 75.7 68.2 77% 77 30.05 0.0
11 19:55 Calm 10.00 Fair CLR 76.8 67.3 72% 79 30.05 0.0
11 19:30 Calm 10.00 Fair CLR 77.5 67.1 70% 79 30.04 0.0
11 19:15 Calm 10.00 Fair CLR 77.9 67.5 70% 80 30.04 0.0
11 18:55 Calm 10.00 Fair CLR 77.9 67.3 81.3 75.6 70% 80 30.03 0.0
11 18:35 Calm 10.00 Fair CLR 78.3 67.1 69% 80 30.03 0.0
11 18:15 Calm 10.00 Fair CLR 78.8 66.4 66% 81 30.03 0.0
11 17:55 Calm 10.00 Fair CLR 78.1 65.1 65% 80 30.03 0.0
11 17:35 Calm 10.00 Fair CLR 78.4 66.9 68% 81 30.03 0.0
11 17:15 Calm 10.00 Partly Cloudy SCT120 76.6 65.3 68% 78 30.03 0.0
11 16:55 Calm 10.00 Mostly Cloudy SCT039 BKN120 76.1 66.7 73% 78 30.03 0.0
11 16:35 Calm 10.00 Overcast BKN037 OVC110 76.8 65.3 68% 79 30.04 0.0
11 16:15 Calm 10.00 Mostly Cloudy SCT035 SCT042 BKN070 79.9 65.1 61% 82 30.04 0.0
11 15:55 Calm 10.00 Mostly Cloudy BKN035 BKN042 BKN050 79.2 65.8 64% 81 30.04 0.0
11 15:35 Calm 10.00 Mostly Cloudy BKN033 BKN042 BKN050 80.6 66.2 62% 83 30.04 0.0
11 15:15 Calm 10.00 Partly Cloudy SCT033 81 64.8 58% 83 30.04 0.0
11 14:55 Calm 10.00 Partly Cloudy SCT033 SCT043 80.4 65.1 60% 82 30.04 0.0
11 14:35 Calm 10.00 Partly Cloudy SCT033 80.6 64.2 58% 82 30.05 0.0
11 14:15 Calm 10.00 Partly Cloudy SCT035 SCT041 80.6 64.9 59% 82 30.05 0.0
11 13:55 Calm 10.00 Partly Cloudy SCT034 SCT040 80.1 64.6 59% 82 30.05 0.0
11 13:35 Calm 10.00 Partly Cloudy SCT034 SCT080 80.1 64 58% 82 30.05 0.0
11 13:15 Calm 10.00 Mostly Cloudy SCT034 BKN080 79.5 64.2 60% 81 30.06 0.0
11 12:55 Calm 10.00 Mostly Cloudy SCT034 BKN080 78.6 63.5 60% 80 30.06 0.0
11 12:35 Calm 10.00 Partly Cloudy SCT031 78.6 63.7 60% 80 30.06 0.0
11 12:15 Calm 7.00 Fair CLR 77.7 64.4 64% 80 30.07 0.0
11 12:00 Calm 0.50 Sky Obscured with Haze VV005 78.6 63.5 60% 80 30.07 0.0
11 11:35 Calm 4.00 Fair with Haze CLR 77.5 63.5 62% 79 30.07 0.0
11 10:55 Calm 10.00 Partly Cloudy SCT022 76.1 66 71% 78 30.07 0.0
11 10:35 Calm 10.00 Partly Cloudy SCT023 75 65.8 73% 76 30.07 0.0
11 10:15 Calm 10.00 Partly Cloudy SCT021 73.6 64.8 74% 30.07 0.0
11 09:55 Calm 10.00 Partly Cloudy SCT019 72 66.4 83% 30.07 0.0
11 09:35 Calm 10.00 Fair CLR 71.1 66.6 86% 30.07 0.0
11 09:15 Calm 10.00 Fair CLR 70.2 67.1 90% 30.07 0.0
11 08:55 Calm 10.00 Partly Cloudy SCT006 69.6 68.2 95% 30.07 0.0
11 08:35 Calm 10.00 Mostly Cloudy SCT004 BKN095 68.7 67.5 96% 30.07 0.0
11 08:15 Calm 5.00 Fog/Mist OVC004 67.3 66.2 96% 30.07 0.0
11 08:00 Calm 3.00 Fog/Mist OVC002 66.7 65.7 96% 30.07 0.0
11 07:35 Calm 0.25 Fog OVC002 65.7 64.6 96% 30.06 0.0
11 07:15 Calm 0.15 Fog OVC002 65.5 64.4 96% 30.05 0.0
11 06:55 Calm 0.15 Fog OVC002 65.3 64.2 67.1 63 96% 30.04 0.0
11 06:35 Calm 0.15 Fog OVC002 65.3 64.2 96% 30.03 0.0
11 06:15 Calm 0.15 Fog OVC002 65.1 64 96% 30.03 0.0
11 05:55 Calm 0.15 Fog OVC002 64.8 63.5 96% 30.02 0.0
11 05:35 Calm 0.50 Fog OVC002 64.4 63.1 96% 30.02 0.0
11 05:15 Calm 0.75 Fog/Mist OVC002 63.9 62.6 96% 30.02 0.0
11 04:55 Calm 1.00 Fog/Mist OVC002 63.3 61.9 95% 30.02 0.0
11 04:35 Calm 0.50 Fog OVC002 63.7 62.4 96% 30.01 0.0
11 04:15 Calm 0.75 Fog/Mist BKN002 63.7 62.4 96% 30.01 0.0
11 03:55 Calm 4.00 Fog/Mist CLR 64.4 63.1 96% 30 0.0
11 03:35 Calm 1.50 Fog/Mist SCT002 64.8 63.7 96% 30 0.0
11 03:15 Calm 0.50 Fog BKN002 64.9 63.7 96% 30 0.0
11 02:55 Calm 2.00 Fog/Mist BKN002 65.5 64.4 96% 30 0.0
11 02:35 Calm 0.75 Fog/Mist OVC002 65.7 64.4 96% 29.99 0.0
11 02:15 Calm 0.25 Fog OVC002 66.2 64.6 95% 30 0.0
11 01:55 Calm 4.00 Fog/Mist OVC004 66.7 65.3 95% 30 0.0
11 01:35 Calm 5.00 Fog/Mist OVC004 67.1 65.5 95% 30 0.0
11 01:15 Calm 7.00 Overcast OVC004 67.1 65.7 95% 30 0.0
11 00:55 Calm 5.00 Fog/Mist SCT006 66.6 65.1 95% 30 0.0
11 00:35 Calm 10.00 Fair CLR 67.1 65.3 94% 30 0.0
11 00:15 Calm 10.00 Partly Cloudy SCT120 67.1 65.5 95% 29.99 0.0
10 23:50 Calm 7.00 Overcast BKN005 OVC120 67.3 65.7 95% 29.99 0.0
10 23:40 Calm 7.00 Mostly Cloudy SCT005 BKN120 67.5 65.8 95% 29.99 0.0
10 23:20 Calm 10.00 Partly Cloudy SCT120 67.6 65.8 94% 29.98 0.0
10 22:55 Calm 7.00 Light Rain BKN110 67.8 66 94% 29.98 0.0 0.01
10 22:35 Calm 10.00 Partly Cloudy SCT120 67.5 65.5 93% 29.98 0.0
10 22:15 Calm 10.00 Light Rain SCT120 67.5 65.3 93% 29.98 0.0
10 21:55 Calm 7.00 Light Rain BKN090 OVC120 67.8 65.5 92% 29.97 0.0 0.12 0.15
10 21:35 Calm 10.00 Rain SCT090 BKN100 OVC120 67.6 65.3 92% 29.98 0.0 0.08
10 21:15 Calm 7.00 Rain SCT080 BKN100 OVC120 67.6 65.3 92% 29.98 0.0 0.05
10 20:55 Calm 10.00 Rain SCT100 BKN120 68 65.3 91% 29.98 0.0 0.03
10 20:35 Calm 10.00 Light Rain SCT110 68 64.9 90% 29.97 0.0
10 20:15 Calm 10.00 Partly Cloudy SCT070 SCT110 68 64.6 89% 29.95 0.0
10 19:55 Calm 10.00 Partly Cloudy SCT070 68 64.4 88% 29.97 0.0
10 19:35 Calm 10.00 Partly Cloudy SCT070 68 64.4 88% 29.97 0.0
10 19:15 Calm 10.00 Partly Cloudy SCT037 SCT050 SCT070 68.7 64.8 87% 29.97 0.0
10 18:50 Calm 10.00 Thunderstorm Light Rain in Vicinity SCT070 OVC100 68.5 65.1 89% 29.94 0.0 0.05
10 18:40 Calm 10.00 Thunderstorm Rain in Vicinity SCT080 OVC100 67.3 64 89% 29.94 0.0 0.04
10 18:15 Calm 10.00 Rain SCT026 BKN100 OVC120 67.1 62.6 86% 29.95 0.0 0.02
10 17:55 Calm 2.00 Thunderstorm Heavy Rain SCT029 BKN037 OVC043 67.1 61.7 83% 29.97 0.0 0.1
10 17:35 Calm 10.00 Thunderstorm in Vicinity SCT031 SCT035 BKN065 75.6 63 65% 77 29.94 0.0
10 17:17 Calm 10.00 Partly Cloudy SCT075 82.4 64.4 55% 84 29.91 0.0
10 16:55 Calm 10.00 Fair CLR 84.7 64.2 50% 86 29.9 0.0
10 16:35 Calm 10.00 Fair CLR 84.9 63.9 49% 86 29.9 0.0
10 16:15 Calm 10.00 Partly Cloudy SCT045 84.9 63.5 49% 86 29.9 0.0
10 15:55 Calm 10.00 Fair CLR 84.9 64.4 50% 86 29.9 0.0
10 15:35 Calm 10.00 Fair CLR 84 64.2 51% 85 29.91 0.0
10 15:15 Calm 10.00 Fair CLR 83.8 65.1 53% 86 29.91 0.0
10 14:55 Calm 10.00 Partly Cloudy SCT085 84.2 65.7 54% 86 29.91 0.0
10 14:35 Calm 10.00 Fair CLR 84 64.6 52% 86 29.92 0.0
10 14:15 Calm 10.00 Partly Cloudy SCT045 85.3 64 49% 87 29.91 0.0
Date Time (cdt) Wind (mph) Vis. (mi.) Weather Sky Cond. Air Dwpt Max. Min. Relative Humidity Wind Chill (°F) Heat Index (°F) altimeter (in) sea level (mb) 1 hr 3 hr 6 hr
6 hour
Temperature (ºF) Pressure Precipitation (in)